UAE606 OMDB-OPKC

Flight info

Callsign UAE606
Flight time N/A
Altitude 37000
Route IVURO DCT TARBO Z440 DAMUM B524 ALPOR G216 LAKIV
Aircraft B77W/H-SDE1E2E3FGHIJ2J3J4J5M1RWXY/LB1D1

Departure

Time 2026-04-24 11:41
Airport Dubai International Airport (OMDB)

Arrival

Time N/A
Airport Jinnah International Airport (OPKC)
Time Latitude Longitude Altitude Speed Heading
2026-04-24 11:09 25.24927 55.36219 26 ft 0 kts 211°
2026-04-24 11:28 25.24933 55.36223 26 ft 4 kts 211°
2026-04-24 11:28 25.24956 55.36238 28 ft 4 kts 213°
2026-04-24 11:28 25.24976 55.36257 32 ft 4 kts 233°
2026-04-24 11:28 25.24988 55.36283 32 ft 4 kts 262°
2026-04-24 11:29 25.24986 55.36311 32 ft 4 kts 292°
2026-04-24 11:29 25.24977 55.36331 32 ft 4 kts 302°
2026-04-24 11:29 25.24963 55.36356 32 ft 4 kts 302°
2026-04-24 11:29 25.24955 55.36371 32 ft 0 kts 302°
2026-04-24 11:32 25.24955 55.36370 32 ft 1 kts 302°
2026-04-24 11:32 25.24976 55.36332 32 ft 11 kts 301°
2026-04-24 11:32 25.25032 55.36232 29 ft 17 kts 301°
2026-04-24 11:32 25.25101 55.36109 27 ft 20 kts 302°
2026-04-24 11:33 25.25181 55.35968 30 ft 23 kts 302°
2026-04-24 11:33 25.25270 55.35811 30 ft 25 kts 302°
2026-04-24 11:33 25.25366 55.35639 30 ft 27 kts 302°
2026-04-24 11:33 25.25471 55.35453 29 ft 29 kts 301°
2026-04-24 11:34 25.25571 55.35272 29 ft 25 kts 301°
2026-04-24 11:34 25.25650 55.35160 30 ft 13 kts 338°
2026-04-24 11:34 25.25733 55.35190 30 ft 14 kts 30°
2026-04-24 11:34 25.25828 55.35253 30 ft 18 kts 31°
2026-04-24 11:35 25.25941 55.35329 25 ft 21 kts 33°
2026-04-24 11:35 25.26005 55.35450 26 ft 20 kts 82°
2026-04-24 11:35 25.25961 55.35605 27 ft 23 kts 121°
2026-04-24 11:35 25.25870 55.35769 27 ft 27 kts 122°
2026-04-24 11:36 25.25766 55.35953 27 ft 30 kts 122°
2026-04-24 11:36 25.25656 55.36148 28 ft 30 kts 121°
2026-04-24 11:36 25.25546 55.36344 27 ft 30 kts 122°
2026-04-24 11:36 25.25433 55.36545 27 ft 30 kts 122°
2026-04-24 11:37 25.25323 55.36740 27 ft 29 kts 122°
2026-04-24 11:37 25.25217 55.36928 27 ft 29 kts 121°
2026-04-24 11:37 25.25108 55.37123 28 ft 31 kts 122°
2026-04-24 11:37 25.25003 55.37310 28 ft 28 kts 122°
2026-04-24 11:38 25.24898 55.37496 28 ft 29 kts 122°
2026-04-24 11:38 25.24789 55.37691 28 ft 31 kts 122°
2026-04-24 11:38 25.24695 55.37858 27 ft 23 kts 122°
2026-04-24 11:38 25.24677 55.37958 28 ft 12 kts 55°
2026-04-24 11:39 25.24751 55.38013 30 ft 13 kts 29°
2026-04-24 11:39 25.24811 55.38020 30 ft 7 kts 319°
2026-04-24 11:39 25.24829 55.37987 30 ft 1 kts 299°
2026-04-24 11:39 25.24834 55.37978 30 ft 2 kts 300°
2026-04-24 11:40 25.24843 55.37961 30 ft 4 kts 300°
2026-04-24 11:40 25.24995 55.37688 31 ft 88 kts 301°
2026-04-24 11:40 25.25466 55.36856 39 ft 163 kts 305°
2026-04-24 11:40 25.26108 55.35718 634 ft 180 kts 303°
2026-04-24 11:41 25.26755 55.34497 1516 ft 187 kts 305°
2026-04-24 11:41 25.27438 55.33279 2477 ft 191 kts 303°
2026-04-24 11:41 25.28147 55.32008 3276 ft 199 kts 301°
2026-04-24 11:41 25.28915 55.30636 3847 ft 220 kts 303°
2026-04-24 11:42 25.30115 55.29488 4036 ft 243 kts 338°
2026-04-24 11:42 25.31893 55.29304 4372 ft 272 kts
2026-04-24 11:42 25.33749 55.29899 5105 ft 290 kts 31°
2026-04-24 11:42 25.35092 55.31547 6229 ft 294 kts 63°
2026-04-24 11:43 25.35690 55.33707 7180 ft 297 kts 77°
2026-04-24 11:43 25.36137 55.35975 8076 ft 306 kts 78°
2026-04-24 11:43 25.36576 55.38294 9090 ft 311 kts 78°
2026-04-24 11:43 25.36964 55.40652 10055 ft 312 kts 87°
2026-04-24 11:44 25.36668 55.43072 10680 ft 329 kts 107°
2026-04-24 11:44 25.35928 55.45551 10968 ft 361 kts 111°
2026-04-24 11:44 25.35057 55.48239 11690 ft 377 kts 111°
2026-04-24 11:44 25.34219 55.51018 12877 ft 382 kts 109°
2026-04-24 11:45 25.33439 55.53841 14082 ft 386 kts 108°
2026-04-24 11:45 25.32691 55.56726 15081 ft 395 kts 107°
2026-04-24 11:45 25.31949 55.59684 16090 ft 404 kts 107°
2026-04-24 11:45 25.31197 55.62714 17134 ft 412 kts 106°
2026-04-24 11:46 25.30427 55.65800 18146 ft 420 kts 106°
2026-04-24 11:46 25.29620 55.68921 19101 ft 425 kts 107°
2026-04-24 11:46 25.28788 55.72067 20082 ft 430 kts 107°
2026-04-24 11:46 25.27940 55.75267 21028 ft 436 kts 108°
2026-04-24 11:47 25.27083 55.78515 21959 ft 442 kts 108°
2026-04-24 11:47 25.26217 55.81802 22807 ft 450 kts 108°
2026-04-24 11:47 25.25334 55.85154 23571 ft 458 kts 108°
2026-04-24 11:47 25.24439 55.88549 24340 ft 461 kts 108°
2026-04-24 11:48 25.23537 55.91968 25081 ft 467 kts 108°
2026-04-24 11:48 25.22640 55.95355 25717 ft 474 kts 107°
2026-04-24 11:48 25.21712 55.98861 26507 ft 477 kts 107°
2026-04-24 11:48 25.20774 56.02402 27242 ft 483 kts 107°
2026-04-24 11:49 25.19826 56.05981 27909 ft 489 kts 107°
2026-04-24 11:49 25.18864 56.09605 28613 ft 494 kts 107°
2026-04-24 11:49 25.17893 56.13257 29347 ft 497 kts 107°
2026-04-24 11:49 25.16914 56.16934 29995 ft 502 kts 107°
2026-04-24 11:50 25.15920 56.20661 30518 ft 507 kts 107°
2026-04-24 11:50 25.14921 56.24407 31054 ft 511 kts 107°
2026-04-24 11:50 25.13915 56.28172 31672 ft 512 kts 107°
2026-04-24 11:50 25.12906 56.31948 32322 ft 512 kts 107°
2026-04-24 11:51 25.11895 56.35726 32895 ft 514 kts 107°
2026-04-24 11:51 25.10881 56.39512 33498 ft 515 kts 107°
2026-04-24 11:51 25.09864 56.43305 34092 ft 516 kts 107°
2026-04-24 11:51 25.08858 56.47054 34580 ft 517 kts 107°
2026-04-24 11:52 25.07834 56.50867 35056 ft 519 kts 107°
2026-04-24 11:52 25.06805 56.54689 35534 ft 520 kts 107°
2026-04-24 11:52 25.05777 56.58507 36029 ft 521 kts 106°
2026-04-24 11:52 25.04741 56.62349 36556 ft 521 kts 106°
2026-04-24 11:53 25.03705 56.66186 36865 ft 525 kts 106°
2026-04-24 11:53 25.02658 56.70062 36822 ft 530 kts 106°
2026-04-24 11:53 25.00539 56.77892 36824 ft 538 kts 106°
2026-04-24 11:54 24.98366 56.85902 36819 ft 551 kts 106°
2026-04-24 11:54 24.96149 56.94056 36811 ft 556 kts 106°
2026-04-24 11:55 24.93949 57.02123 36805 ft 556 kts 106°
2026-04-24 11:55 24.91721 57.10277 36792 ft 556 kts 106°
2026-04-24 11:56 24.89489 57.18425 36803 ft 555 kts 106°
2026-04-24 11:56 24.87258 57.26552 36800 ft 554 kts 106°
2026-04-24 11:57 24.85042 57.34606 36799 ft 553 kts 106°
2026-04-24 11:57 24.82811 57.42694 36791 ft 551 kts 106°
2026-04-24 11:58 24.80580 57.50768 36791 ft 551 kts 106°
2026-04-24 11:58 24.78709 57.57523 36793 ft 550 kts 106°
2026-04-24 11:59 24.76474 57.65576 36785 ft 550 kts 106°
2026-04-24 11:59 24.74254 57.73557 36796 ft 549 kts 106°
2026-04-24 12:00 24.72475 57.81673 36791 ft 546 kts 96°
2026-04-24 12:00 24.71462 57.89961 36803 ft 545 kts 95°
2026-04-24 12:01 24.70490 57.98232 36802 ft 545 kts 96°
2026-04-24 12:01 24.69487 58.06333 36794 ft 544 kts 96°
2026-04-24 12:02 24.68434 58.14568 36798 ft 544 kts 96°
2026-04-24 12:02 24.67372 58.22807 36802 ft 543 kts 96°
2026-04-24 12:03 24.66312 58.31017 36795 ft 543 kts 96°
2026-04-24 12:03 24.65250 58.39227 36796 ft 542 kts 96°
2026-04-24 12:04 24.64184 58.47442 36799 ft 542 kts 96°
2026-04-24 12:04 24.63114 58.55639 36801 ft 542 kts 96°
2026-04-24 12:05 24.62041 58.63829 36795 ft 541 kts 96°
2026-04-24 12:05 24.60964 58.72014 36797 ft 541 kts 96°
2026-04-24 12:06 24.59881 58.80204 36795 ft 541 kts 96°
2026-04-24 12:06 24.58861 58.87888 36798 ft 541 kts 96°
2026-04-24 12:07 24.57769 58.96085 36801 ft 541 kts 96°
2026-04-24 12:07 24.56693 59.04129 36797 ft 541 kts 96°
2026-04-24 12:08 24.55594 59.12306 36799 ft 541 kts 96°
2026-04-24 12:08 24.54492 59.20477 36798 ft 540 kts 96°
2026-04-24 12:09 24.52979 59.28574 36802 ft 541 kts 101°
2026-04-24 12:09 24.51219 59.36607 36805 ft 541 kts 102°
2026-04-24 12:10 24.49461 59.44645 36796 ft 541 kts 101°
2026-04-24 12:11 24.46877 59.56697 36797 ft 540 kts 101°
2026-04-24 12:11 24.45161 59.64716 36799 ft 540 kts 101°
2026-04-24 12:12 24.43441 59.72715 36787 ft 539 kts 101°
2026-04-24 12:12 24.41724 59.80668 36795 ft 539 kts 101°
2026-04-24 12:13 24.39993 59.88668 36800 ft 538 kts 101°
2026-04-24 12:13 24.38257 59.96669 36796 ft 538 kts 101°
2026-04-24 12:14 24.36540 60.04566 36791 ft 538 kts 101°
2026-04-24 12:14 24.34800 60.12544 36798 ft 537 kts 101°
2026-04-24 12:15 24.33049 60.20506 36803 ft 537 kts 101°
2026-04-24 12:15 24.31296 60.28456 36794 ft 536 kts 101°
2026-04-24 12:16 24.29541 60.36402 36798 ft 536 kts 101°
2026-04-24 12:16 24.27782 60.44347 36799 ft 535 kts 101°
2026-04-24 12:17 24.26035 60.52219 36795 ft 535 kts 101°
2026-04-24 12:17 24.24270 60.60151 36801 ft 535 kts 101°
2026-04-24 12:18 24.22503 60.68074 36797 ft 535 kts 101°
2026-04-24 12:18 24.20734 60.75988 36801 ft 535 kts 102°
2026-04-24 12:19 24.18960 60.83901 36798 ft 535 kts 102°
2026-04-24 12:19 24.17185 60.91808 36799 ft 535 kts 102°
2026-04-24 12:20 24.15403 60.99728 36792 ft 535 kts 101°
2026-04-24 12:20 24.13646 61.07517 36804 ft 535 kts 101°
2026-04-24 12:21 24.11863 61.15401 36797 ft 534 kts 101°
2026-04-24 12:21 24.10077 61.23286 36796 ft 533 kts 102°
2026-04-24 12:22 24.08636 61.31217 36790 ft 529 kts 92°
2026-04-24 12:22 24.08604 61.39223 36805 ft 523 kts 81°
2026-04-24 12:23 24.09721 61.47041 36803 ft 519 kts 77°
2026-04-24 12:23 24.10962 61.54843 36797 ft 519 kts 77°
2026-04-24 12:24 24.12133 61.62642 36797 ft 519 kts 77°
2026-04-24 12:24 24.13269 61.70451 36797 ft 519 kts 77°
2026-04-24 12:25 24.14405 61.78261 36796 ft 520 kts 77°
2026-04-24 12:25 24.15506 61.86054 36797 ft 522 kts 78°
2026-04-24 12:26 24.16567 61.93930 36801 ft 523 kts 78°
2026-04-24 12:26 24.17596 62.01626 36797 ft 523 kts 78°
2026-04-24 12:27 24.18656 62.09522 36796 ft 523 kts 78°
2026-04-24 12:27 24.19715 62.17402 36796 ft 523 kts 78°
2026-04-24 12:28 24.20769 62.25279 36798 ft 522 kts 79°
2026-04-24 12:28 24.21816 62.33140 36792 ft 521 kts 79°
2026-04-24 12:29 24.22850 62.40933 36791 ft 520 kts 79°
2026-04-24 12:29 24.23887 62.48775 36790 ft 519 kts 79°
2026-04-24 12:30 24.24917 62.56602 36799 ft 518 kts 79°
2026-04-24 12:30 24.25941 62.64414 36793 ft 518 kts 79°
2026-04-24 12:31 24.26960 62.72219 36796 ft 517 kts 79°
2026-04-24 12:31 24.27977 62.80037 36792 ft 517 kts 79°
2026-04-24 12:32 24.28987 62.87836 36793 ft 517 kts 79°
2026-04-24 12:32 24.29993 62.95640 36790 ft 516 kts 79°
2026-04-24 12:33 24.30977 63.03300 36790 ft 516 kts 79°
2026-04-24 12:33 24.31974 63.11096 36790 ft 516 kts 79°
2026-04-24 12:34 24.32967 63.18893 36794 ft 515 kts 79°
2026-04-24 12:34 24.33956 63.26684 36791 ft 515 kts 79°
2026-04-24 12:35 24.34939 63.34468 36793 ft 515 kts 79°
2026-04-24 12:35 24.35919 63.42259 36793 ft 516 kts 79°
2026-04-24 12:36 24.36895 63.50051 36796 ft 516 kts 79°
2026-04-24 12:36 24.37860 63.57784 36794 ft 516 kts 79°
2026-04-24 12:37 24.38827 63.65573 36794 ft 515 kts 79°
2026-04-24 12:37 24.39792 63.73378 36791 ft 515 kts 79°
2026-04-24 12:38 24.40751 63.81165 36793 ft 515 kts 80°
2026-04-24 12:38 24.41705 63.88948 36793 ft 514 kts 80°
2026-04-24 12:39 24.43583 64.04362 36793 ft 514 kts 80°
2026-04-24 12:40 24.44524 64.12138 36796 ft 513 kts 80°
2026-04-24 12:40 24.45452 64.19845 36778 ft 503 kts 80°
2026-04-24 12:41 24.46359 64.27411 36788 ft 499 kts 80°
2026-04-24 12:41 24.47262 64.34960 36795 ft 498 kts 80°
2026-04-24 12:42 24.48155 64.42459 36801 ft 498 kts 80°
2026-04-24 12:42 24.49048 64.49997 36798 ft 498 kts 80°
2026-04-24 12:43 24.49934 64.57507 36794 ft 497 kts 80°
2026-04-24 12:43 24.50672 64.63789 36793 ft 497 kts 80°
2026-04-24 12:44 24.51552 64.71314 36795 ft 497 kts 80°
2026-04-24 12:44 24.52433 64.78870 36798 ft 498 kts 80°
2026-04-24 12:45 24.53263 64.86419 36796 ft 498 kts 82°